KD1DRM Weather Reports


time (UTC)temp
C
wind
direction
speed
KPH
gust
KPH
rain 1hr
cm
rain 24hr
cm
rain mn
cm
humidity
%
barometer
mb
20260504173033 25 228 3.2 9.7 0.00 0.00 0.00 44 1017.6
20260504171525 24 233 0.0 11.3 0.00 0.00 0.00 44 1017.7
20260504081523 9 263 0.0 0.0 0.00 0.00 0.00 95 1018.3
20260504050017 11 263 0.0 0.0 0.00 0.00 0.00 93 1019.5
20260504044535 11 263 0.0 0.0 0.00 0.00 0.00 93 1019.5
20260504043033 11 263 0.0 0.0 0.00 0.00 0.00 93 1019.5
20260504041512 11 263 0.0 0.0 0.00 0.00 0.00 92 1019.6
20260504040016 11 263 0.0 0.0 0.00 0.00 0.00 92 1019.6
20260504034533 11 262 0.0 0.0 0.00 0.00 0.00 91 1019.8
20260504033035 12 263 0.0 0.0 0.00 0.00 0.00 91 1019.8
20260504031528 12 263 0.0 0.0 0.00 0.00 0.00 90 1019.8
20260504030014 12 263 0.0 0.0 0.00 0.00 0.00 90 1019.8
20260504024522 12 263 0.0 0.0 0.00 0.00 0.00 89 1019.6
20260504023022 12 263 0.0 0.0 0.00 0.00 0.00 88 1019.3
20260504021533 13 263 0.0 0.0 0.00 0.00 0.00 87 1019.2
20260504020014 13 263 0.0 0.0 0.00 0.00 0.00 86 1019.0
20260504014515 13 263 0.0 0.0 0.00 0.00 0.00 84 1018.8
20260504013033 14 263 0.0 0.0 0.00 0.00 0.00 83 1018.6
20260504011524 15 263 0.0 0.0 0.00 0.00 0.00 81 1018.6
20260504010033 16 263 0.0 0.0 0.00 0.00 0.00 78 1018.5
20260504004513 16 263 0.0 0.0 0.00 0.00 0.00 74 1018.3
20260504003015 17 262 0.0 0.0 0.00 0.00 0.00 70 1018.3
20260504001522 18 263 0.0 0.0 0.00 0.00 0.00 66 1018.2
20260504000027 20 263 0.0 0.0 0.00 0.00 0.00 63 1018.3
20260503234527 21 262 0.0 0.0 0.00 0.00 0.00 54 1018.3
20260503233013 22 263 0.0 1.6 0.00 0.00 0.00 44 1018.4
20260503231520 23 15 1.6 3.2 0.00 0.00 0.00 37 1018.4
20260503230026 25 238 0.0 4.8 0.00 0.00 0.00 36 1018.4
20260503224527 25 248 1.6 4.8 0.00 0.00 0.00 35 1018.5
20260503223029 24 223 1.6 9.7 0.00 0.00 0.00 38 1018.5
20260503221529 25 330 1.6 8.0 0.00 0.00 0.00 37 1018.5
20260503220022 25 319 4.8 11.3 0.00 0.00 0.00 36 1018.7
20260503214526 25 233 4.8 9.7 0.00 0.00 0.00 36 1018.8
20260503213032 25 203 1.6 11.3 0.00 0.00 0.00 36 1019.1
20260503211529 24 285 3.2 11.3 0.00 0.00 0.00 39 1019.3
20260503210021 24 233 4.8 11.3 0.00 0.00 0.00 35 1019.5
20260503204526 24 87 3.2 12.9 0.00 0.00 0.00 35 1019.7
20260503203029 24 301 1.6 14.5 0.00 0.00 0.00 37 1019.8
20260503201531 24 88 1.6 12.9 0.00 0.00 0.00 37 1020.1
20260503200033 24 64 4.8 9.7 0.00 0.00 0.00 34 1020.3
20260503194527 24 288 0.0 9.7 0.00 0.00 0.00 34 1020.5
20260503193026 24 297 3.2 9.7 0.00 0.00 0.00 35 1020.9
20260503191528 23 271 1.6 8.0 0.00 0.00 0.00 37 1021.1
20260503190017 23 287 1.6 8.0 0.00 0.00 0.00 38 1021.4
20260503184517 23 239 3.2 9.7 0.00 0.00 0.00 41 1021.7
20260503183020 23 68 4.8 14.5 0.00 0.00 0.00 40 1021.9
20260503181508 23 250 3.2 6.4 0.00 0.00 0.00 36 1022.0
20260503180008 23 251 6.4 14.5 0.00 0.00 0.00 36 1022.1
20260503174508 23 311 1.6 3.2 0.00 0.00 0.00 35 1022.3